Wind_Speed
22 20 17 15 12 13 11 14 13 13 11 8 5 4 4 5 4 3 4 5 7 5 6 5 7 7 6 7 8 12 15 20 12 11 15 26 33 32 36 47 47 44 42
20 19 17 18 15 11 10 10 10 11 9 7 8 5 5 3 3 3 2 2 3 4 8 5 2 10 9 9 16 23 27 23 28 19 22 24 34 40 35 45 39 43 38
23 21 17 18 14 11 12 11 10 9 7 3 4 6 4 3 5 4 4 2 1 2 3 3 6 10 12 18 23 28 27 28 28 28 25 30 31 41 37 36 41 38 34
23 20 19 17 14 13 13 10 11 9 6 6 9 8 9 6 3 6 5 4 8 8 8 9 11 8 18 24 27 28 33 31 32 30 28 24 31 33 32 35 31 34 32
23 22 19 16 13 14 12 13 11 10 7 8 10 11 7 6 6 5 9 10 10 10 6 10 13 17 23 25 30 28 31 31 30 28 25 26 29 29 27 24 30 29 26
23 23 19 16 16 13 11 9 9 11 10 9 11 13 7 7 9 6 8 10 10 13 15 15 22 21 20 22 31 28 34 38 29 23 22 26 25 29 27 28 27 23 11
23 22 21 18 19 12 13 13 12 10 10 10 12 11 8 5 6 7 8 10 12 13 17 26 27 26 24 28 28 33 28 29 32 30 32 29 30 32 30 26 24 22 18
25 23 21 19 16 13 12 12 10 9 9 11 14 10 9 6 6 8 11 11 14 13 18 25 29 30 31 32 33 32 29 30 29 33 36 29 35 33 31 36 30 20 25
25 24 23 22 19 16 14 13 12 10 9 11 12 10 8 8 7 9 13 16 18 18 19 24 27 31 31 34 34 32 28 28 28 27 32 31 34 32 31 32 24 27 18
26 24 25 25 21 20 17 12 11 11 13 12 13 10 7 11 9 10 15 20 20 20 20 22 25 29 31 34 33 31 27 29 29 30 23 24 28 29 28 26 32 26 22
25 21 26 24 21 21 15 12 12 11 11 14 16 11 11 10 9 10 14 20 22 22 24 27 28 27 28 29 33 33 33 34 33 31 24 26 27 25 25 18 26 29 29
24 23 26 26 25 21 17 14 13 13 16 19 18 14 11 10 10 12 15 18 20 25 26 27 27 27 27 28 30 30 30 33 30 28 22 22 23 23 19 20 24 25 22
24 33 32 28 23 19 18 18 17 17 21 21 19 16 12 10 12 14 16 16 19 23 23 24 24 22 24 25 26 28 31 30 30 27 20 21 20 18 18 13 16 18 22
27 34 30 28 25 20 18 18 18 19 21 20 20 18 15 14 14 15 17 21 20 23 23 22 22 24 22 23 24 29 32 29 29 31 28 23 18 18 18 19 16 14 14
31 32 27 29 28 23 18 16 16 19 23 25 24 24 22 18 17 17 19 24 25 26 25 22 22 22 20 28 32 33 35 30 29 30 30 26 22 23 26 23 19 18 16
29 29 28 28 30 27 21 11 12 12 20 23 23 24 21 19 23 21 18 23 24 25 24 21 21 21 25 28 28 31 30 28 30 29 30 30 29 29 27 26 24 23 22
28 30 30 27 27 26 21 18 17 14 15 25 21 22 22 21 25 25 22 23 24 25 23 20 20 25 29 31 31 30 28 31 28 31 30 31 32 32 30 29 27 25 24
32 33 32 28 28 27 25 23 20 23 18 16 17 26 25 26 26 30 25 24 27 24 23 22 20 23 28 29 30 32 33 30 29 33 36 37 36 33 33 30 31 30 28
34 33 31 30 25 31 28 26 27 25 24 21 19 21 30 30 30 31 29 29 31 30 27 24 25 25 26 29 29 31 29 25 25 21 29 38 39 38 35 33 34 35 32
34 35 33 29 31 28 29 28 25 27 26 27 26 29 34 33 34 34 33 32 32 33 34 31 26 27 29 30 29 34 32 31 29 29 28 30 37 37 36 36 36 36 36
32 36 35 32 30 30 30 27 28 27 26 26 32 35 38 40 35 37 38 36 35 35 35 35 35 32 27 33 35 35 35 38 37 39 38 37 34 40 39 36 36 38 39
27 31 36 31 32 27 29 33 31 31 29 28 27 36 39 41 37 38 39 41 41 38 36 34 36 38 37 33 27 37 39 37 38 40 41 41 42 40 37 38 38 36 38
9 22 28 28 29 33 26 32 34 33 33 32 31 31 44 41 35 37 39 43 44 43 43 37 33 36 35 35 37 36 34 43 41 39 36 35 38 43 42 37 35 35 33
18 17 14 29 28 28 30 30 32 37 36 35 32 35 43 44 38 38 40 43 44 45 45 46 47 44 38 37 40 38 38 39 34 39 41 41 40 39 39 41 40 37 35
22 19 19 13 27 31 29 31 32 34 35 35 36 34 38 42 41 41 41 42 43 43 44 43 43 44 48 49 45 37 40 40 40 40 36 39 40 40 41 41 40 39 35
25 25 23 22 19 24 31 30 32 34 35 35 36 38 37 40 43 43 41 41 41 43 43 45 44 42 41 41 41 47 46 38 38 36 38 40 39 39 39 40 39 40 36
Wind_Direction
145 152 151 148 145 138 131 138 140 143 156 172 194 239 240 258 238 257 248 237 235 226 246 237 197 191 152 166 167 159 155 135 117 102 112 130 137 128 124 132 136 139 139
160 163 152 152 143 139 145 150 156 159 172 203 225 262 185 203 316 285 248 154 294 237 214 224 204 150 143 128 137 125 123 122 121 112 113 115 118 120 118 128 136 145 141
162 159 154 155 150 153 163 160 159 175 202 257 172 141 112 63 56 68 96 98 228 332 46 151 158 145 138 140 131 118 119 119 120 116 117 112 113 120 113 119 123 133 135
168 160 154 161 156 154 165 168 174 184 203 116 140 124 95 86 48 59 81 82 96 79 76 111 140 156 147 134 127 129 129 124 124 122 127 110 120 130 124 123 125 135 139
161 162 156 159 149 149 165 165 179 195 165 127 145 113 110 92 60 78 86 86 79 64 82 123 139 157 143 142 136 136 134 132 129 134 126 119 123 133 136 129 128 137 147
158 150 158 145 148 156 169 176 166 164 150 152 138 134 113 88 57 98 87 90 90 95 99 139 133 132 134 145 146 139 142 137 137 139 135 134 133 139 142 140 139 136 126
149 146 154 150 147 154 161 161 158 157 156 152 139 136 115 97 69 55 111 115 108 101 114 123 125 128 133 132 134 132 137 137 139 138 138 140 145 148 142 141 145 147 147
144 145 147 151 156 154 158 159 153 154 167 156 145 133 131 104 91 77 108 124 119 113 128 133 135 139 140 131 131 131 136 141 147 144 153 147 151 150 151 156 150 143 148
150 154 157 157 153 164 174 164 163 159 143 144 148 149 140 125 107 109 117 123 116 115 128 143 145 145 148 146 136 134 138 140 152 149 149 153 153 154 155 149 150 140 146
160 167 168 164 159 162 155 170 174 181 179 172 158 156 144 137 125 121 132 131 122 124 126 143 154 150 157 159 146 143 137 144 149 143 132 147 154 155 158 164 159 154 157
168 168 166 162 153 158 158 156 150 149 159 169 149 148 146 138 130 131 139 142 136 133 134 140 150 155 161 165 165 160 156 157 154 151 146 153 162 165 175 174 178 170 170
170 150 161 156 152 154 153 160 157 146 138 145 144 138 143 137 135 133 135 146 143 138 144 146 152 161 164 166 171 168 163 161 163 164 159 162 168 182 185 187 190 195 200
163 150 151 155 156 155 154 152 154 151 147 150 150 148 148 146 139 141 146 148 148 147 144 144 152 157 163 165 172 175 166 166 168 174 179 182 188 190 189 197 186 187 212
156 155 158 159 159 163 162 167 165 160 157 160 162 159 159 158 151 146 145 150 151 146 143 145 147 151 157 167 164 169 172 172 177 184 190 195 202 197 205 201 193 201 193
158 161 162 159 163 170 172 188 189 185 180 176 178 170 163 167 170 157 152 155 153 150 146 146 151 160 150 157 164 169 178 184 187 193 198 202 206 206 207 206 210 182 177
158 164 170 162 169 177 178 172 205 186 195 186 184 184 181 169 168 166 163 164 160 156 153 154 164 172 172 170 175 183 186 195 204 203 206 208 209 209 205 202 204 199 204
165 168 174 176 173 182 183 171 142 143 156 187 187 193 185 167 173 168 166 169 170 169 167 170 171 177 179 184 189 193 201 205 209 212 211 211 208 208 206 199 203 209 215
178 178 179 184 189 188 193 195 178 163 152 148 173 197 193 180 173 172 171 177 177 188 189 188 190 188 189 196 204 209 214 224 229 217 211 210 208 204 200 205 207 211 216
184 186 189 194 194 199 200 198 198 192 184 168 160 175 179 177 176 177 182 187 187 193 195 202 206 208 207 209 211 217 224 220 216 209 204 205 203 205 207 213 213 218 219
189 192 193 198 206 205 205 201 191 190 186 184 178 177 180 182 184 187 191 196 196 201 206 209 210 218 220 220 221 222 224 223 222 222 220 215 216 216 217 218 219 218 221
189 189 197 198 207 209 209 208 203 188 189 187 194 195 193 191 193 196 199 203 208 212 215 217 220 221 225 229 222 225 226 226 224 222 223 227 223 221 222 224 224 221 222
195 193 196 196 204 211 212 214 212 207 191 194 194 202 204 198 198 202 207 212 214 217 221 225 227 232 234 236 234 229 226 229 231 229 228 230 231 229 228 228 229 228 228
6 206 202 204 207 207 215 217 213 215 211 197 197 193 203 202 206 208 212 217 220 223 223 222 228 234 235 239 241 241 239 232 232 233 229 226 228 229 229 227 228 229 221
347 340 239 210 211 213 211 220 216 216 218 218 207 198 201 204 207 212 215 220 224 228 230 230 228 230 231 234 237 238 242 244 244 239 235 236 235 231 229 229 229 229 227
342 332 324 319 220 213 216 215 220 215 214 216 216 216 210 207 210 213 216 218 222 225 230 231 233 234 235 235 237 239 239 240 242 242 239 235 235 235 233 231 230 231 223
329 325 324 317 319 229 215 215 217 215 212 214 216 219 225 216 217 218 217 218 219 223 225 230 234 235 237 238 238 237 240 245 243 242 242 239 236 235 233 230 230 227 217
Height
703 708 711 714 717 720 722 724 726 729 731 732 732 731 732 732 732 732 731 731 731 732 731 732 732 735 735 734 736 738 741 744 753 762 762 762 766 771 766 780 791 803 808
705 708 712 715 717 720 722 724 728 729 730 731 731 731 730 731 731 730 730 731 730 730 731 731 732 734 735 735 735 738 744 750 753 760 766 769 771 775 784 789 799 806 813
705 708 712 715 717 720 723 725 728 729 730 731 731 731 732 731 730 730 729 730 731 729 729 730 731 733 734 735 738 742 748 754 760 763 770 773 776 781 789 797 801 812 820
704 707 711 714 717 720 723 726 728 729 730 730 731 731 731 731 730 730 730 729 730 730 728 729 731 733 735 736 740 746 751 757 764 769 773 777 783 791 797 802 811 819 825
703 707 711 715 718 720 723 727 728 729 730 731 732 732 732 732 732 731 730 730 729 728 727 730 732 736 739 741 744 750 754 759 765 774 778 782 788 796 801 808 812 821 829
704 707 712 715 718 721 724 726 728 729 730 731 733 733 734 733 733 733 732 731 730 731 731 733 736 739 742 745 748 752 755 756 768 774 779 784 792 798 805 810 816 822 829
704 708 712 715 719 722 724 726 727 729 731 732 733 734 734 735 735 733 733 734 734 735 736 737 740 744 747 750 753 758 765 769 771 774 780 787 794 799 805 813 819 823 827
704 708 712 716 719 721 724 726 728 730 731 733 734 735 736 736 737 736 735 736 737 738 739 741 743 748 751 755 759 765 771 775 778 780 783 789 795 802 806 810 818 824 831
704 708 712 715 718 722 724 726 728 730 732 734 735 736 737 738 738 738 738 739 739 741 743 745 747 751 756 759 762 768 773 779 784 787 791 795 801 806 811 817 821 825 833
702 706 709 713 717 720 724 726 728 730 732 734 736 737 738 738 740 740 741 741 742 744 746 749 751 754 759 762 765 771 777 783 788 793 798 803 807 812 815 818 820 825 831
700 705 709 713 716 720 723 726 728 730 731 733 735 738 739 740 741 742 743 744 744 747 750 753 757 760 763 766 769 774 779 785 792 796 800 805 809 814 818 820 822 822 826
699 703 708 713 718 720 723 726 728 730 731 734 736 739 740 742 743 744 745 746 748 749 753 756 760 764 768 771 775 779 784 789 793 798 802 807 810 814 817 820 823 823 824
697 703 708 713 717 720 722 725 728 730 732 735 737 739 741 743 744 746 747 749 751 753 756 760 763 767 771 774 778 782 787 792 796 800 804 807 809 813 817 819 820 823 826
696 702 707 712 717 721 723 725 726 729 733 735 737 738 740 743 745 747 749 751 753 756 759 763 766 769 773 776 781 785 789 793 795 798 801 805 809 812 815 817 819 820 822
695 700 705 710 715 720 723 725 726 728 729 731 734 736 738 742 744 747 749 751 754 758 761 765 769 772 775 778 782 785 788 791 794 798 801 805 807 809 811 814 817 819 821
693 698 703 708 713 718 720 723 724 726 727 731 733 734 738 740 743 747 750 753 756 759 763 766 769 771 774 777 780 783 787 790 793 797 800 802 803 806 809 813 815 817 817
689 695 700 705 710 715 717 721 723 726 726 729 732 735 737 739 744 748 752 755 759 761 763 766 768 770 773 776 778 781 784 786 790 793 796 798 800 802 806 808 810 812 813
687 692 696 701 706 710 714 717 720 723 727 728 729 732 735 738 742 746 751 755 759 761 763 765 767 769 771 774 776 779 781 783 785 786 790 792 795 797 800 803 805 807 808
684 689 693 697 701 705 709 712 715 718 721 724 727 730 733 737 740 744 747 749 752 756 759 761 764 766 769 770 772 774 776 778 780 782 784 785 789 792 794 796 798 800 803
679 683 689 693 697 701 703 706 709 713 716 719 722 726 731 735 737 740 742 744 747 749 752 755 757 761 763 765 767 769 771 773 775 777 779 782 783 785 787 789 792 794 795
672 676 681 687 690 694 697 700 703 706 710 713 715 718 721 725 731 734 737 739 741 743 746 749 751 753 755 757 758 761 763 764 766 768 771 773 775 777 779 781 783 785 787
667 670 674 677 682 686 690 692 695 698 701 705 708 712 715 719 722 725 728 730 733 736 739 741 744 745 747 748 750 752 753 755 757 759 763 766 768 770 772 774 776 777 778
668 669 670 672 674 676 681 684 686 689 691 695 699 702 707 711 713 715 717 720 723 726 730 734 736 737 738 739 741 743 744 744 747 750 752 754 756 758 762 764 766 768 770
667 667 668 668 670 671 671 675 678 680 682 686 689 690 694 698 702 705 707 710 712 715 718 721 723 725 728 729 730 732 733 736 738 741 744 746 748 750 752 755 757 758 759
666 665 664 665 664 664 665 666 668 671 673 676 679 681 683 687 690 693 695 698 701 703 705 707 710 711 714 718 720 722 724 726 728 730 733 734 735 738 741 743 747 748 751
666 663 661 659 659 659 657 657 658 660 663 666 669 672 674 676 678 681 684 688 690 692 694 696 697 700 702 705 707 711 714 716 718 720 723 724 726 728 731 734 737 738 740